Powrót do katalogu

STARLINK-4464

AktywnyŁącznośćPO
NORAD 53669·PAYLOAD·🇺🇸 United States

Wystrzelony Aug 31, 2022 z Vandenberg Space Force Base

Loading…

Następne Przeloty (najbliższe 24 godziny)

TLE

ŚwieżeSource: CelesTrak SupGP

Epoka: Sep 15, 2026, 01:34 UTC

1 53669C 22105X   26258.06576389  .00348920  00000+0  79264-3 0  2580
2 53669  97.5878 148.8609 0002534 147.9310  51.4083 15.97315428    17

Śledź STARLINK-4464 w czasie rzeczywistym z AllMySat

Download on the App Store